Flag for Estonia Weather past 2 weeks in Kohtla-Järve, Estonia

Now
34 °F

Passing clouds.


Feels Like: 30 °F
Forecast: 29 / 35 °F
Wind: 5 mph from Southwest

Location: Johvi

Current Time: Mar 4, 2015 at 7:56:02 PM

Latest Report: Mar 4, 2015 at 6:00 PM


Visibility: 31 mi

Pressure: 29.94 "Hg

Humidity: 79%

Dew point: 28 °F

Location of Kohtla-JärveLocation

Historic Weather in Kohtla-Järve — Graph

°F

Kohtla-Järve temperature yesterday

Maximum temperature yesterday: 39 °F (at 3:00 PM)
Minimum temperature yesterday: 35 °F (at 10:00 AM)
Average temperature yesterday: 37 °F

Past Weeks' High & Low Weather Summary

 TemperatureHumidityPressure
High40 °F (Feb 25, 3:00 PM)100% (Feb 19, 7:00 AM)30.46 "Hg (Feb 19, 7:00 AM)
Low20 °F (Feb 17, 9:00 PM)49% (Feb 17, 6:00 PM)29.35 "Hg (Feb 22, 8:00 AM)
Average34 °F91%29.83 "Hg
* Reported Feb 17 6:00 PM — Mar 4 6:00 PM, Kohtla-Järve, Weather by CustomWeather, © 2015

Note: Actual official high and low records may vary slightly from our data, if they occured in-between our weather recording intervals... More about our weather records

Advertising

Kohtla-Järve weather history for previous 24 hours

 ConditionsComfort  
Time TempWeatherWind HumidityBarometerVisibility
6:00 PM
Wed, Mar 4
34 °FPassing clouds.5 mph79%29.94 "Hg31 mi
5:00 PM37 °FPartly sunny.7 mph75%29.91 "Hg31 mi
4:00 PM37 °FPartly sunny.7 mph79%29.88 "Hg28 mi
3:00 PM39 °FPartly sunny.8 mph73%29.86 "Hg31 mi
2:00 PM39 °FOvercast.9 mph71%29.83 "Hg25 mi
1:00 PM37 °FFog.9 mph83%29.81 "Hg17 mi
12:00 PM38 °FOvercast.8 mph87%29.79 "Hg22 mi
11:00 AM36 °FLow clouds.7 mph91%29.76 "Hg25 mi
10:00 AM35 °FRain showers. Low clouds.8 mph93%29.74 "Hg22 mi
9:00 AM34 °FDrizzle. Low clouds.7 mph95%29.71 "Hg10 mi
8:00 AM34 °FDrizzle. Low clouds.7 mph95%29.68 "Hg14 mi
7:00 AM33 °FLight rain. Low clouds.7 mph95%29.66 "Hg7 mi
6:00 AM34 °FSprinkles. Overcast.7 mph94%29.64 "Hg16 mi
5:00 AM34 °FDrizzle. Low clouds.7 mph96%29.62 "Hg8 mi
4:00 AM34 °FRain showers. Low clouds.7 mph95%29.61 "Hg7 mi
3:00 AM34 °FRain showers. Low clouds.7 mph95%29.59 "Hg6 mi
2:00 AM34 °FRain showers. Low clouds.7 mph96%29.58 "Hg7 mi
1:00 AM36 °FOvercast.8 mph89%29.57 "Hg31 mi
12:00 AM36 °FOvercast.9 mph90%29.56 "Hg31 mi
11:00 PM
Tue, Mar 3
36 °FOvercast.8 mph89%29.55 "Hg31 mi
10:00 PM37 °FSprinkles. Overcast.9 mph89%29.54 "Hg12 mi
9:00 PM37 °FOvercast.9 mph87%29.54 "Hg25 mi
8:00 PM38 °FLight rain. Overcast.9 mph85%29.54 "Hg28 mi
7:00 PM38 °FOvercast.9 mph83%29.54 "Hg31 mi
Weather by CustomWeather, © 2015

See weather overviewHow to use our weather pages